Time,TemperatureF,DewpointF,PressureIn,WindDirection,WindDirectionDegrees,WindSpeedMPH,WindSpeedGustMPH,Humidity,HourlyPrecipIn,Conditions,Clouds,dailyrainin,SoftwareType,DateUTC
2013-07-18 00:08:00,76.2,74.0,29.94,SSW,202,0.0,-999.0,94,-99.99,,,0.00,weatherlink.com 1.10,2013-07-18 04:08:00,
2013-07-18 00:23:00,77.5,75.0,29.94,WSW,250,0.0,-999.0,91,-99.99,,,0.00,weatherlink.com 1.10,2013-07-18 04:23:00,
2013-07-18 00:38:00,76.5,74.0,29.95,SW,229,0.0,-999.0,92,-99.99,,,0.00,weatherlink.com 1.10,2013-07-18 04:38:00,
2013-07-18 00:53:00,76.5,74.0,29.96,WSW,253,0.0,-999.0,92,-99.99,,,0.00,weatherlink.com 1.10,2013-07-18 04:53:00,
2013-07-18 01:08:00,75.3,73.0,29.95,SW,236,0.0,-999.0,93,-99.99,,,0.00,weatherlink.com 1.10,2013-07-18 05:08:00,
2013-07-18 01:23:00,74.8,73.0,29.95,SSW,207,0.0,-999.0,95,-99.99,,,0.00,weatherlink.com 1.10,2013-07-18 05:23:00,
2013-07-18 01:38:00,74.4,73.0,29.94,SSW,209,0.0,-999.0,95,-99.99,,,0.00,weatherlink.com 1.10,2013-07-18 05:38:00,
2013-07-18 01:53:00,74.0,73.0,29.94,SSW,207,0.0,-999.0,95,-99.99,,,0.00,weatherlink.com 1.10,2013-07-18 05:53:00,
2013-07-18 02:08:00,73.9,72.0,29.94,South,182,0.0,-999.0,95,-99.99,,,0.00,weatherlink.com 1.10,2013-07-18 06:08:00,
2013-07-18 02:23:00,73.7,72.0,29.93,South,182,0.0,-999.0,95,-99.99,,,0.00,weatherlink.com 1.10,2013-07-18 06:23:00,
2013-07-18 02:38:00,73.5,72.0,29.93,South,182,0.0,-999.0,95,-99.99,,,0.00,weatherlink.com 1.10,2013-07-18 06:38:00,
2013-07-18 02:53:00,73.4,72.0,29.93,South,182,0.0,-999.0,95,-99.99,,,0.00,weatherlink.com 1.10,2013-07-18 06:53:00,
2013-07-18 03:08:00,73.1,72.0,29.92,South,183,0.0,-999.0,95,-99.99,,,0.00,weatherlink.com 1.10,2013-07-18 07:08:00,
2013-07-18 03:23:00,72.8,71.0,29.91,South,190,0.0,-999.0,95,-99.99,,,0.00,weatherlink.com 1.10,2013-07-18 07:23:00,
2013-07-18 03:38:00,72.6,71.0,29.91,South,191,0.0,-999.0,96,-99.99,,,0.00,weatherlink.com 1.10,2013-07-18 07:38:00,
2013-07-18 03:53:00,72.6,71.0,29.91,SW,215,0.0,-999.0,96,-99.99,,,0.00,weatherlink.com 1.10,2013-07-18 07:53:00,
2013-07-18 04:08:00,72.8,72.0,29.92,SW,215,0.0,-999.0,96,-99.99,,,0.00,weatherlink.com 1.10,2013-07-18 08:08:00,
2013-07-18 04:23:00,72.4,71.0,29.92,SW,215,0.0,-999.0,96,-99.99,,,0.00,weatherlink.com 1.10,2013-07-18 08:23:00,
2013-07-18 04:38:00,72.4,71.0,29.91,SW,222,0.0,-999.0,96,-99.99,,,0.00,weatherlink.com 1.10,2013-07-18 08:38:00,
2013-07-18 04:53:00,72.2,71.0,29.91,SW,222,0.0,-999.0,96,-99.99,,,0.00,weatherlink.com 1.10,2013-07-18 08:53:00,
2013-07-18 05:08:00,72.2,71.0,29.92,WSW,238,0.0,-999.0,96,-99.99,,,0.00,weatherlink.com 1.10,2013-07-18 09:08:00,
2013-07-18 05:23:00,72.2,71.0,29.93,WNW,290,0.0,-999.0,96,-99.99,,,0.00,weatherlink.com 1.10,2013-07-18 09:23:00,
2013-07-18 05:38:00,72.2,71.0,29.93,West,260,0.0,-999.0,96,-99.99,,,0.00,weatherlink.com 1.10,2013-07-18 09:38:00,
2013-07-18 05:53:00,72.8,72.0,29.94,West,267,0.0,-999.0,97,-99.99,,,0.00,weatherlink.com 1.10,2013-07-18 09:53:00,
2013-07-18 06:07:00,73.0,72.0,29.94,WNW,283,0.0,-999.0,97,-99.99,,,0.00,weatherlink.com 1.10,2013-07-18 10:07:00,
2013-07-18 06:22:00,73.7,73.0,29.94,NW,325,0.0,-999.0,97,-99.99,,,0.00,weatherlink.com 1.10,2013-07-18 10:22:00,
2013-07-18 06:37:00,74.4,74.0,29.94,WNW,298,0.0,-999.0,97,-99.99,,,0.00,weatherlink.com 1.10,2013-07-18 10:37:00,
2013-07-18 06:52:00,75.6,74.0,29.95,West,277,0.0,-999.0,96,-99.99,,,0.00,weatherlink.com 1.10,2013-07-18 10:52:00,
2013-07-18 07:07:00,77.3,76.0,29.95,West,267,0.0,-999.0,94,-99.99,,,0.00,weatherlink.com 1.10,2013-07-18 11:07:00,
2013-07-18 07:22:00,78.8,76.0,29.95,WNW,303,0.0,-999.0,91,-99.99,,,0.00,weatherlink.com 1.10,2013-07-18 11:22:00,
2013-07-18 07:37:00,79.9,77.0,29.96,WSW,241,0.0,-999.0,90,-99.99,,,0.00,weatherlink.com 1.10,2013-07-18 11:37:00,
2013-07-18 07:52:00,80.5,77.0,29.96,NNW,331,0.0,-999.0,89,-99.99,,,0.00,weatherlink.com 1.10,2013-07-18 11:52:00,
2013-07-18 08:07:00,81.1,78.0,29.95,WNW,296,0.0,-999.0,89,-99.99,,,0.00,weatherlink.com 1.10,2013-07-18 12:07:00,
2013-07-18 08:22:00,81.6,77.0,29.95,WNW,295,0.0,-999.0,86,-99.99,,,0.00,weatherlink.com 1.10,2013-07-18 12:22:00,
2013-07-18 08:37:00,82.1,77.0,29.95,NNE,13,0.0,-999.0,85,-99.99,,,0.00,weatherlink.com 1.10,2013-07-18 12:37:00,
2013-07-18 08:52:00,83.1,78.0,29.95,NE,36,0.0,-999.0,84,-99.99,,,0.00,weatherlink.com 1.10,2013-07-18 12:52:00,
2013-07-18 09:07:00,82.9,77.0,29.95,NW,306,0.0,-999.0,82,-99.99,,,0.00,weatherlink.com 1.10,2013-07-18 13:07:00,
2013-07-18 09:22:00,84.2,79.0,29.96,NNE,17,0.0,-999.0,83,-99.99,,,0.00,weatherlink.com 1.10,2013-07-18 13:22:00,
2013-07-18 09:37:00,84.0,79.0,29.95,North,5,0.0,-999.0,85,-99.99,,,0.00,weatherlink.com 1.10,2013-07-18 13:37:00,
2013-07-18 09:52:00,84.8,79.0,29.96,North,9,0.0,-999.0,82,-99.99,,,0.00,weatherlink.com 1.10,2013-07-18 13:52:00,
2013-07-18 10:07:00,84.5,77.0,29.96,WNW,291,0.0,-999.0,77,-99.99,,,0.00,weatherlink.com 1.10,2013-07-18 14:07:00,
2013-07-18 10:22:00,84.9,77.0,29.96,NNW,338,0.0,-999.0,76,-99.99,,,0.00,weatherlink.com 1.10,2013-07-18 14:22:00,
2013-07-18 10:37:00,85.8,78.0,29.96,North,5,0.0,-999.0,78,-99.99,,,0.00,weatherlink.com 1.10,2013-07-18 14:37:00,
2013-07-18 10:52:00,85.8,77.0,29.96,WNW,292,0.0,-999.0,74,-99.99,,,0.00,weatherlink.com 1.10,2013-07-18 14:52:00,
2013-07-18 11:07:00,86.9,79.0,29.96,North,5,0.0,-999.0,78,-99.99,,,0.00,weatherlink.com 1.10,2013-07-18 15:07:00,
2013-07-18 11:22:00,86.1,78.0,29.96,North,360,0.0,-999.0,77,-99.99,,,0.00,weatherlink.com 1.10,2013-07-18 15:22:00,
2013-07-18 11:37:00,86.8,78.0,29.96,East,98,0.0,-999.0,75,-99.99,,,0.00,weatherlink.com 1.10,2013-07-18 15:37:00,
2013-07-18 11:52:00,87.1,80.0,29.95,NNE,22,0.0,-999.0,80,-99.99,,,0.00,weatherlink.com 1.10,2013-07-18 15:52:00,
2013-07-18 12:07:00,85.1,77.0,29.95,NW,319,0.0,-999.0,77,-99.99,,,0.00,weatherlink.com 1.10,2013-07-18 16:07:00,
2013-07-18 12:22:00,86.9,78.0,29.95,NNW,331,0.0,-999.0,74,-99.99,,,0.00,weatherlink.com 1.10,2013-07-18 16:22:00,
2013-07-18 12:37:00,86.9,78.0,29.95,WNW,293,0.0,-999.0,75,-99.99,,,0.00,weatherlink.com 1.10,2013-07-18 16:37:00,
2013-07-18 12:52:00,87.3,76.0,29.95,NNE,28,0.0,-999.0,68,-99.99,,,0.00,weatherlink.com 1.10,2013-07-18 16:52:00,
2013-07-18 13:07:00,85.2,79.0,29.95,North,5,0.0,-999.0,81,-99.99,,,0.00,weatherlink.com 1.10,2013-07-18 17:07:00,
2013-07-18 13:22:00,87.0,78.0,29.94,NE,55,0.0,-999.0,74,-99.99,,,0.00,weatherlink.com 1.10,2013-07-18 17:22:00,
2013-07-18 13:37:00,87.2,77.0,29.94,ENE,58,0.0,-999.0,72,-99.99,,,0.00,weatherlink.com 1.10,2013-07-18 17:37:00,
2013-07-18 13:52:00,88.2,81.0,29.94,NNW,342,0.0,-999.0,78,-99.99,,,0.00,weatherlink.com 1.10,2013-07-18 17:52:00,
2013-07-18 14:07:00,89.0,77.0,29.93,South,173,0.0,-999.0,67,-99.99,,,0.00,weatherlink.com 1.10,2013-07-18 18:07:00,
2013-07-18 14:22:00,86.5,79.0,29.94,SE,136,0.0,-999.0,78,-99.99,,,0.00,weatherlink.com 1.10,2013-07-18 18:22:00,
2013-07-18 14:37:00,87.5,81.0,29.93,ESE,105,0.0,-999.0,81,-99.99,,,0.00,weatherlink.com 1.10,2013-07-18 18:37:00,
2013-07-18 14:52:00,87.0,79.0,29.92,South,186,0.0,-999.0,76,-99.99,,,0.00,weatherlink.com 1.10,2013-07-18 18:52:00,
2013-07-18 15:07:00,87.0,78.0,29.92,SSE,155,0.0,-999.0,74,-99.99,,,0.00,weatherlink.com 1.10,2013-07-18 19:07:00,
2013-07-18 15:22:00,86.6,77.0,29.92,SSE,165,0.0,-999.0,73,-99.99,,,0.00,weatherlink.com 1.10,2013-07-18 19:22:00,
2013-07-18 15:37:00,86.8,78.0,29.91,ESE,113,0.0,-999.0,75,-99.99,,,0.00,weatherlink.com 1.10,2013-07-18 19:37:00,
2013-07-18 15:52:00,86.6,78.0,29.90,SSW,196,0.0,-999.0,76,-99.99,,,0.00,weatherlink.com 1.10,2013-07-18 19:52:00,
2013-07-18 16:07:00,84.3,75.0,29.89,SE,142,0.0,-999.0,74,-99.99,,,0.00,weatherlink.com 1.10,2013-07-18 20:07:00,
2013-07-18 16:22:00,81.2,75.0,29.90,SSE,153,0.0,-999.0,81,-99.99,,,0.00,weatherlink.com 1.10,2013-07-18 20:22:00,
2013-07-18 16:37:00,80.6,75.0,29.91,ESE,123,0.0,-999.0,83,-99.99,,,0.00,weatherlink.com 1.10,2013-07-18 20:37:00,
2013-07-18 16:52:00,81.0,75.0,29.92,ESE,103,0.0,-999.0,83,-99.99,,,0.00,weatherlink.com 1.10,2013-07-18 20:52:00,
2013-07-18 17:07:00,79.0,74.0,29.92,NE,47,0.0,-999.0,83,-99.99,,,0.00,weatherlink.com 1.10,2013-07-18 21:07:00,
2013-07-18 17:22:00,79.1,76.0,29.92,ENE,75,0.0,-999.0,90,-99.99,,,0.00,weatherlink.com 1.10,2013-07-18 21:22:00,
2013-07-18 17:37:00,79.6,76.0,29.92,ESE,115,0.0,-999.0,88,-99.99,,,0.00,weatherlink.com 1.10,2013-07-18 21:37:00,
2013-07-18 17:52:00,79.1,75.0,29.90,ESE,122,0.0,-999.0,88,-99.99,,,0.00,weatherlink.com 1.10,2013-07-18 21:52:00,
2013-07-18 18:07:00,78.6,75.0,29.89,SSE,158,0.0,-999.0,88,-99.99,,,0.00,weatherlink.com 1.10,2013-07-18 22:07:00,
2013-07-18 18:22:00,78.4,74.0,29.89,East,97,0.0,-999.0,86,-99.99,,,0.00,weatherlink.com 1.10,2013-07-18 22:22:00,
2013-07-18 18:37:00,78.5,72.0,29.90,East,86,0.0,-999.0,81,-99.99,,,0.00,weatherlink.com 1.10,2013-07-18 22:37:00,
2013-07-18 18:52:00,78.7,72.0,29.90,East,92,0.0,-999.0,81,-99.99,,,0.00,weatherlink.com 1.10,2013-07-18 22:52:00,
2013-07-18 19:07:00,77.8,72.0,29.91,SE,131,0.0,-999.0,81,-99.99,,,0.00,weatherlink.com 1.10,2013-07-18 23:07:00,
2013-07-18 19:22:00,77.4,71.0,29.91,East,85,0.0,-999.0,81,-99.99,,,0.00,weatherlink.com 1.10,2013-07-18 23:22:00,
2013-07-18 19:37:00,76.6,72.0,29.91,East,92,0.0,-999.0,84,-99.99,,,0.00,weatherlink.com 1.10,2013-07-18 23:37:00,
2013-07-18 19:52:00,76.2,71.0,29.92,East,90,0.0,-999.0,85,-99.99,,,0.00,weatherlink.com 1.10,2013-07-18 23:52:00,
2013-07-18 20:07:00,75.5,72.0,29.91,East,84,0.0,-999.0,88,-99.99,,,0.00,weatherlink.com 1.10,2013-07-19 00:07:00,
2013-07-18 20:22:00,74.5,72.0,29.90,East,84,0.0,-999.0,90,-99.99,,,0.00,weatherlink.com 1.10,2013-07-19 00:22:00,
2013-07-18 20:37:00,74.1,71.0,29.90,East,84,0.0,-999.0,91,-99.99,,,0.00,weatherlink.com 1.10,2013-07-19 00:37:00,
2013-07-18 20:52:00,74.1,71.0,29.92,NNE,32,0.0,-999.0,91,-99.99,,,0.00,weatherlink.com 1.10,2013-07-19 00:52:00,
2013-07-18 21:07:00,73.7,71.0,29.91,NNE,30,0.0,-999.0,92,-99.99,,,0.00,weatherlink.com 1.10,2013-07-19 01:07:00,
2013-07-18 21:22:00,73.3,71.0,29.92,NNE,30,0.0,-999.0,93,-99.99,,,0.00,weatherlink.com 1.10,2013-07-19 01:22:00,
2013-07-18 21:37:00,72.9,71.0,29.92,NNE,30,0.0,-999.0,94,-99.99,,,0.00,weatherlink.com 1.10,2013-07-19 01:37:00,
2013-07-18 21:52:00,72.5,71.0,29.92,NNE,30,0.0,-999.0,94,-99.99,,,0.00,weatherlink.com 1.10,2013-07-19 01:52:00,
2013-07-18 22:07:00,72.2,71.0,29.92,NNE,30,0.0,-999.0,95,-99.99,,,0.00,weatherlink.com 1.10,2013-07-19 02:07:00,
2013-07-18 22:22:00,72.1,71.0,29.91,NNE,30,0.0,-999.0,95,-99.99,,,0.00,weatherlink.com 1.10,2013-07-19 02:22:00,
2013-07-18 22:37:00,72.1,71.0,29.92,North,355,0.0,-999.0,95,-99.99,,,0.00,weatherlink.com 1.10,2013-07-19 02:37:00,
2013-07-18 22:52:00,72.5,71.0,29.93,NNW,333,0.0,-999.0,95,-99.99,,,0.00,weatherlink.com 1.10,2013-07-19 02:52:00,
2013-07-18 23:07:00,72.7,71.0,29.92,NNW,337,0.0,-999.0,93,-99.99,,,0.00,weatherlink.com 1.10,2013-07-19 03:07:00,
2013-07-18 23:22:00,72.0,70.0,29.92,NNW,337,0.0,-999.0,94,-99.99,,,0.00,weatherlink.com 1.10,2013-07-19 03:22:00,
2013-07-18 23:37:00,71.1,70.0,29.91,WNW,294,0.0,-999.0,95,-99.99,,,0.00,weatherlink.com 1.10,2013-07-19 03:37:00,
2013-07-18 23:52:00,70.6,69.0,29.90,WNW,294,0.0,-999.0,95,-99.99,,,0.00,weatherlink.com 1.10,2013-07-19 03:52:00,